Regional Weather Roundup
Issued by NWS

Home | Current Version | Previous Version | Text Only | Print | Product List | Glossary On
Versions: 1 2 3 4 5 6 7 8 9 10 11 12 13 14 15 16 17 18 19 20 21 22 23 24 25 26 27 28 29 30 31 32 33 34 35 36 37 38 39 40 41 42 43 44 45 46 47 48 49 50
000
ASUS46 KLOX 120613
RWRCA

SOUTHERN CALIFORNIA WEATHER ROUNDUP
NATIONAL WEATHER SERVICE OXNARD CALIFORNIA
1000 PM PST THU FEB 11 2016

NOTE: "FAIR" INDICATES FEW OR NO CLOUDS BELOW 12,000 FEET WITH NO
SIGNIFICANT WEATHER AND/OR OBSTRUCTIONS TO VISIBILITY.

  -  STATIONS PRECEEDED BY AN ASTERISK (*) ARE NOT NWS OR FAA
     STATIONS AND ARE NOT SUBJECT TO NWS AND FAA QUALITY CONTROL.

CAZ041-042-087-120700-
LA AND ORANGE COUNTY COASTAL AREAS


CITY           SKY/WX    TMP DP  RH WIND       PRES   REMARKS
L.A. DOWNTOWN  CLEAR     63  41  44 CALM      30.10S
L.A. AIRPORT   CLEAR     63  43  48 CALM      30.11S
LONG BEACH     CLEAR     63  39  41 CALM      30.10S

CITY           SKY/WX    TMP DP  RH WIND       PRES   REMARKS
FULLERTON      CLEAR     61  40  45 CALM      30.10S
HAWTHORNE      CLEAR     63  43  48 CALM      30.11S
*LOS ALAMITOS  CLEAR     57  45  63 CALM      30.10S
*REDONDO BEACH   N/A     57  38  49 CALM      30.11R
SANTA ANA      CLEAR     64  36  35 CALM      30.10S
STA MONICA APT CLEAR     62  45  53 CALM      30.11S
*UCLA            N/A     64  34  32 NE3       30.09R

$$

CAZ547-548-048-120700-
LA COUNTY VALLEYS AND INLAND EMPIRE


CITY           SKY/WX    TMP DP  RH WIND       PRES   REMARKS
BURBANK        CLEAR     63  37  38 N3        30.11S
VAN NUYS       CLEAR     63  34  33 CALM      30.12S

CITY           SKY/WX    TMP DP  RH WIND       PRES   REMARKS
CORONA AIRPORT CLEAR     53  38  56 E5        30.14R
*CHATSWORTH      N/A     62  35  37 CALM      30.13R
CHINO          CLEAR     61  36  39 E3        30.14S
*CLAREMONT       N/A     61  31  32 CALM        N/A
MARCH AFB      CLEAR     51  33  48 CALM      30.16R
ONTARIO        CLEAR     64  39  39 E3        30.14R
*PASADENA        N/A     66  41  39 CALM        N/A
RIVERSIDE      CLEAR     64  35  34 NE5       30.14S
SAN BERNARDINO NOT AVBL
*SAN GABRIEL     N/A     62  43  51 W1        30.18S
*SAUGUS          N/A      0 -27  26 SE3         N/A
*WHITEMAN AP   NOT AVBL
*WHITTIER HILL   N/A     70  32  24 CALM        N/A
*WOODLAND HILL   N/A     57  32  38 SE1         N/A

$$

CAZ054-055-120700-
LA AND SAN BERNARDINO COUNTY MOUNTAINS


CITY           SKY/WX    TMP DP  RH WIND       PRES   REMARKS
*ACTON           N/A     51  28  41 NW5         N/A
*BIG BEAR AIRP CLEAR     28  21  74 CALM      30.42S
*BIG PINES       N/A     47  21  35 CALM        N/A
SANDBERG       CLEAR     62  20  19 NE7       30.29S

$$

CAZ028-029-059-060-099-120700-
ANTELOPE VALLEY AND SURROUNDING AREAS


CITY           SKY/WX    TMP DP  RH WIND       PRES   REMARKS
LANCASTER      CLEAR     45  30  55 CALM      30.23R
PALMDALE       CLEAR     47  29  49 S5        30.22F
*POPPY PARK      N/A     46  28  49 NW5         N/A

CITY           SKY/WX    TMP DP  RH WIND       PRES   REMARKS
29 PALMS       CLEAR     52  20  28 CALM      30.27S
BARSTOW/DAGGET CLEAR     51  22  31 W5        30.21S
BISHOP         PTCLDY    39  27  62 NW7       30.29R WCI  34
CHINA LAKE     CLEAR     49  29  46 SW10      30.22R
EDWARDS AFB    CLEAR     48  27  45 W8        30.20S
MOJAVE         CLEAR     50  28  43 NW8       30.23R
NEEDLES        CLEAR     63  26  24 N7        30.16S
VICTORVILLE    CLEAR     46  23  39 CALM      30.24S

$$

CAZ039-040-120700-
VENTURA AND SANTA BARBARA COUNTY COAST


CITY           SKY/WX    TMP DP  RH WIND       PRES   REMARKS
CAMARILLO      CLEAR     59  41  51 NE3       30.10S
NWS OXNARD       N/A     58  42  54 CALM      30.09S
OXNARD AIRPORT CLEAR     59  45  59 CALM      30.11S
*POINT MUGU    CLEAR     56  46  69 N8        30.11S
SBA APT/GOLETA CLEAR     51  46  83 W3        30.11R
*SANTA BARBARA   N/A     59  49  69 CALM      30.19S
*VENTURA         N/A     60  41  48 NE3       30.10R

$$

CAZ044-045-120700-
VENTURA COUNTY VALLEYS


CITY           SKY/WX    TMP DP  RH WIND       PRES   REMARKS
*SIMI VALLEY     N/A     59  37  44 CALM      30.07R
*WESTLAKE VILL   N/A     50  36  59 CALM      30.13R
*OJAI            N/A     48  40  74 CALM      30.08S
*FILLMORE        N/A     54  41  60 CALM      30.02R

$$

CAZ053-120700-
VENTURA COUNTY MOUNTAINS


CITY           SKY/WX    TMP DP  RH WIND       PRES   REMARKS
*LOCKWOOD VLY    N/A     36  18  48 W2          N/A
*ROSE VALLEY     N/A     36  32  87 MISG        N/A

$$

CAZ034-035-036-120700-
CENTRAL COAST AND SANTA YNEZ VALLEY


CITY           SKY/WX    TMP DP  RH WIND       PRES   REMARKS
SAN LUIS OBISP FOG       52  51  97 CALM      30.15S VSB 1/4
SANTA MARIA    PTCLDY    49  49 100 CALM      30.16S FOG

CITY           SKY/WX    TMP DP  RH WIND       PRES   REMARKS
*CAL POLY SLO    N/A     50  50 100 SW1G8       N/A
*SANTA YNEZ    FAIR      52  43  71 CALM      30.16R

$$

CAZ037-038-051-120700-
SAN LUIS OBISPO COUNTY INTERIOR AND CUYAMA VALLEY


CITY           SKY/WX    TMP DP  RH WIND       PRES   REMARKS
*CUYAMA          N/A     51  33  49 E3        30.16S
PASO ROBLES    CLEAR     54  48  80 CALM      30.17R

$$

CAZ032-033-061-120700-
SOUTHERN DESERTS


CITY           SKY/WX    TMP DP  RH WIND       PRES   REMARKS
BLYTHE         CLEAR     58  25  28 N3        30.12S
IMPERIAL       CLEAR     58  35  42 NW3       30.09S
PALM SPRINGS   CLEAR     64  30  27 N7        30.14S
THERMAL        CLEAR     51  35  54 N3        30.09S

$$

ELSEWHERE ACROSS THE WESTERN UNITED STATES AND MEXICO


CITY           SKY/WX    TMP DP  RH WIND       PRES   REMARKS
DENVER, CO     PTCLDY    35  26  69 SE16      30.26S WCI  25
GRAND CANYON,  MOCLDY    27  20  75 CALM      30.41S
HONOLULU, HI   PTCLDY    75  64  69 NE8       30.04R
KAHULUI, MAUI  PTCLDY    72  61  68 NE8       30.06R
LAKE TAHOE, CA PTCLDY    32  26  78 NE5       30.35R WCI  27
LAS VEGAS, NV  CLEAR     56  23  27 S3        30.19S
MAMMOTH LAKES, FAIR      34  21  60 N6        30.41R WCI  29
MEXICO CITY, M PTCLDY    54  32  43 NW8       30.42S
PHOENIX, AZ    CLEAR     65  35  33 E6        30.11S
PORTLAND, OR   CLOUDY    50  44  80 E12       30.12S
RENO, NV       CLOUDY    46  34  62 CALM      30.30R
SALT LAKE CITY CLOUDY    30  27  88 NW6       30.42R FOG     WCI  24
SAN DIEGO, CA  CLEAR     66  36  32 CALM      30.12R
SAN FRANCISCO, MOCLDY    56  50  80 W14       30.18R
SAN JOSE, CA   MOCLDY    57  49  74 W5        30.18R
SEATTLE, WA    LGT RAIN  52  48  87 SE6       30.09S
TIJUANA, MEX   CLEAR     64  28  25 E7        30.14S

$$

STATION/POSITION TIME  TEMP    WIND        PRES    VSBY  WAVE
                       AIR SEA DIR/SP/G                  HT/PER
                 (UTC) (F)     (DEG/KT/KT) (MB)    (MI)  (FT/S)
POINT ARGUELLO B NOT AVBL
WEST SANTA BARBA 0550   55 58  310/ 17/ 21 1018.9F         9/21
POINT CONCEPTION NOT AVBL
EAST SANTA BARBA 0500   57 59  230/  8/ 10 1019.9R
SANTA MONICA BAY 0550   62 61  310/  8/  8 1019.5R         4/10


USA.gov is the U.S. government's official web portal to all federal, state and local government web resources and services.